GLD166 SBEG-SEQM

Flight info

Callsign GLD166
Flight time N/A
Altitude 38000
Route VUNG1A VUNEP UM665 IQT UM776 ENVIG DCT
Aircraft A320/M-SDFGIRY/S

Departure

Time 2026-04-30 13:13
Airport Eduardo Gomes International Airport (SBEG)

Arrival

Time N/A
Airport Mariscal Sucre International Airport (SEQM)
Time Latitude Longitude Altitude Speed Heading
2026-04-30 13:02 -3.03269 -60.04539 268 ft 0 kts 353°
2026-04-30 13:04 -3.03281 -60.04538 268 ft 3 kts 353°
2026-04-30 13:05 -3.03298 -60.04536 268 ft 2 kts 353°
2026-04-30 13:05 -3.03315 -60.04534 268 ft 2 kts 353°
2026-04-30 13:05 -3.03332 -60.04530 268 ft 3 kts 324°
2026-04-30 13:06 -3.03347 -60.04500 268 ft 3 kts 252°
2026-04-30 13:06 -3.03345 -60.04494 268 ft 0 kts 250°
2026-04-30 13:08 -3.03345 -60.04495 268 ft 0 kts 250°
2026-04-30 13:08 -3.03349 -60.04506 268 ft 3 kts 250°
2026-04-30 13:09 -3.03356 -60.04535 268 ft 6 kts 261°
2026-04-30 13:09 -3.03357 -60.04594 268 ft 11 kts 271°
2026-04-30 13:09 -3.03354 -60.04688 268 ft 16 kts 271°
2026-04-30 13:09 -3.03394 -60.04802 268 ft 20 kts 249°
2026-04-30 13:10 -3.03494 -60.04889 268 ft 21 kts 225°
2026-04-30 13:10 -3.03590 -60.05013 268 ft 25 kts 243°
2026-04-30 13:10 -3.03630 -60.05190 268 ft 28 kts 255°
2026-04-30 13:10 -3.03682 -60.05395 268 ft 32 kts 262°
2026-04-30 13:11 -3.03688 -60.05628 268 ft 34 kts 271°
2026-04-30 13:11 -3.03684 -60.05875 268 ft 36 kts 270°
2026-04-30 13:11 -3.03688 -60.06101 268 ft 37 kts 258°
2026-04-30 13:11 -3.03863 -60.06113 270 ft 33 kts 102°
2026-04-30 13:12 -3.03862 -60.06040 269 ft 0 kts 86°
2026-04-30 13:12 -3.03861 -60.06028 269 ft 12 kts 86°
2026-04-30 13:13 -3.03856 -60.04637 418 ft 160 kts 90°
2026-04-30 13:13 -3.03874 -60.03481 1158 ft 174 kts 92°
2026-04-30 13:13 -3.04097 -60.00832 2462 ft 213 kts 119°
2026-04-30 13:14 -3.05227 -59.99796 2872 ft 238 kts 158°
2026-04-30 13:14 -3.06937 -59.99703 3373 ft 261 kts 195°
2026-04-30 13:14 -3.09478 -60.02357 5038 ft 280 kts 243°
2026-04-30 13:15 -3.10275 -60.04148 5902 ft 284 kts 245°
2026-04-30 13:15 -3.11958 -60.07787 7542 ft 292 kts 241°
2026-04-30 13:15 -3.12939 -60.09586 8323 ft 297 kts 238°
2026-04-30 13:16 -3.13997 -60.11370 9105 ft 301 kts 236°
2026-04-30 13:16 -3.15048 -60.13199 9866 ft 306 kts 244°
2026-04-30 13:16 -3.15664 -60.15256 10562 ft 312 kts 261°
2026-04-30 13:17 -3.16070 -60.19851 11086 ft 354 kts 264°
2026-04-30 13:17 -3.16267 -60.22387 11208 ft 376 kts 265°
2026-04-30 13:17 -3.16683 -60.27870 11505 ft 412 kts 265°
2026-04-30 13:18 -3.16905 -60.30751 11980 ft 418 kts 264°
2026-04-30 13:18 -3.17369 -60.36599 13128 ft 425 kts 264°
2026-04-30 13:18 -3.17607 -60.39569 13712 ft 429 kts 264°
2026-04-30 13:19 -3.17847 -60.42549 14223 ft 432 kts 264°
2026-04-30 13:19 -3.18086 -60.45562 14727 ft 436 kts 264°
2026-04-30 13:19 -3.18324 -60.48596 15212 ft 439 kts 264°
2026-04-30 13:19 -3.18563 -60.51656 15696 ft 443 kts 264°
2026-04-30 13:20 -3.18747 -60.54749 16158 ft 447 kts 266°
2026-04-30 13:20 -3.18825 -60.57864 16629 ft 450 kts 268°
2026-04-30 13:20 -3.18831 -60.61010 17072 ft 454 kts 269°
2026-04-30 13:20 -3.18803 -60.64226 17502 ft 457 kts 269°
2026-04-30 13:21 -3.18775 -60.67420 17913 ft 461 kts 269°
2026-04-30 13:21 -3.18763 -60.70635 18309 ft 464 kts 269°
2026-04-30 13:21 -3.18773 -60.73868 18648 ft 466 kts 269°
2026-04-30 13:22 -3.18838 -60.80386 19330 ft 471 kts 268°
2026-04-30 13:22 -3.18878 -60.83675 19669 ft 473 kts 268°
2026-04-30 13:22 -3.18949 -60.90296 20329 ft 478 kts 269°
2026-04-30 13:23 -3.18979 -60.93633 20653 ft 480 kts 269°
2026-04-30 13:23 -3.19034 -61.00350 21265 ft 485 kts 269°
2026-04-30 13:24 -3.19083 -61.07119 21821 ft 489 kts 269°
2026-04-30 13:24 -3.19140 -61.13944 22339 ft 493 kts 269°
2026-04-30 13:25 -3.19202 -61.20820 22808 ft 496 kts 269°
2026-04-30 13:25 -3.19259 -61.27747 23230 ft 499 kts 269°
2026-04-30 13:26 -3.19343 -61.38210 23809 ft 503 kts 269°
2026-04-30 13:26 -3.19398 -61.45234 24167 ft 505 kts 269°
2026-04-30 13:27 -3.19453 -61.52274 24521 ft 507 kts 270°
2026-04-30 13:28 -3.19527 -61.62862 25048 ft 507 kts 270°
2026-04-30 13:28 -3.19587 -61.69901 25524 ft 505 kts 270°
2026-04-30 13:28 -3.19615 -61.73414 25767 ft 504 kts 270°
2026-04-30 13:29 -3.19669 -61.80407 26259 ft 502 kts 270°
2026-04-30 13:29 -3.19724 -61.87436 26776 ft 501 kts 270°
2026-04-30 13:30 -3.19804 -61.97858 27586 ft 498 kts 270°
2026-04-30 13:31 -3.19846 -62.04778 28174 ft 496 kts 270°
2026-04-30 13:31 -3.19944 -62.15096 29105 ft 493 kts 269°
2026-04-30 13:32 -3.20315 -62.21937 29748 ft 491 kts 267°
2026-04-30 13:32 -3.20867 -62.28734 30339 ft 490 kts 266°
2026-04-30 13:33 -3.21416 -62.35512 30901 ft 488 kts 267°
2026-04-30 13:33 -3.21931 -62.42270 31470 ft 487 kts 267°
2026-04-30 13:34 -3.22175 -62.45647 31771 ft 486 kts 267°
2026-04-30 13:34 -3.22903 -62.55736 32680 ft 484 kts 267°
2026-04-30 13:35 -3.23152 -62.59091 32996 ft 483 kts 267°
2026-04-30 13:35 -3.23577 -62.64654 33531 ft 482 kts 266°
2026-04-30 13:36 -3.24081 -62.71335 34172 ft 480 kts 266°
2026-04-30 13:36 -3.24330 -62.74708 34463 ft 480 kts 266°
2026-04-30 13:36 -3.24822 -62.81356 35069 ft 478 kts 266°
2026-04-30 13:37 -3.25069 -62.84666 35362 ft 477 kts 266°
2026-04-30 13:37 -3.25567 -62.91290 35940 ft 476 kts 266°
2026-04-30 13:38 -3.26059 -62.97885 36496 ft 475 kts 267°
2026-04-30 13:38 -3.26300 -63.01172 36769 ft 474 kts 266°
2026-04-30 13:38 -3.26792 -63.07750 37303 ft 473 kts 267°
2026-04-30 13:39 -3.27269 -63.14317 37815 ft 472 kts 267°
2026-04-30 13:39 -3.27750 -63.20890 37968 ft 475 kts 267°
2026-04-30 13:40 -3.27995 -63.24187 37964 ft 476 kts 266°
2026-04-30 13:40 -3.28491 -63.30799 37966 ft 476 kts 266°
2026-04-30 13:41 -3.28737 -63.34106 37968 ft 476 kts 266°
2026-04-30 13:42 -3.30727 -63.61098 37971 ft 477 kts 266°
2026-04-30 13:43 -3.31213 -63.67711 37973 ft 477 kts 266°
2026-04-30 13:43 -3.31701 -63.74336 37971 ft 477 kts 266°
2026-04-30 13:44 -3.32179 -63.80956 37978 ft 477 kts 266°
2026-04-30 13:44 -3.32651 -63.87581 37978 ft 477 kts 266°
2026-04-30 13:45 -3.33369 -63.97514 37981 ft 477 kts 266°
2026-04-30 13:46 -3.33846 -64.04147 37980 ft 478 kts 266°
2026-04-30 13:46 -3.34324 -64.10778 37982 ft 478 kts 266°
2026-04-30 13:47 -3.34802 -64.17406 37983 ft 477 kts 266°
2026-04-30 13:47 -3.35282 -64.24033 37986 ft 477 kts 266°
2026-04-30 13:48 -3.35761 -64.30649 37975 ft 477 kts 267°
2026-04-30 13:48 -3.36230 -64.37270 37973 ft 477 kts 267°
2026-04-30 13:49 -3.36701 -64.43894 37975 ft 477 kts 266°
2026-04-30 13:49 -3.37187 -64.50564 37970 ft 478 kts 266°
2026-04-30 13:50 -3.37672 -64.57196 37977 ft 478 kts 266°
2026-04-30 13:50 -3.38380 -64.67144 37964 ft 478 kts 266°
2026-04-30 13:51 -3.38876 -64.73775 37964 ft 478 kts 265°
2026-04-30 13:51 -3.39773 -64.80358 37958 ft 478 kts 261°
2026-04-30 13:52 -3.40943 -64.86908 37961 ft 478 kts 260°
2026-04-30 13:52 -3.42076 -64.93462 37971 ft 478 kts 261°
2026-04-30 13:53 -3.42936 -64.98929 37979 ft 479 kts 262°
2026-04-30 13:53 -3.43939 -65.05525 37982 ft 479 kts 262°
2026-04-30 13:54 -3.44785 -65.11041 37985 ft 479 kts 262°
2026-04-30 13:54 -3.45986 -65.18700 37981 ft 479 kts 262°
2026-04-30 13:55 -3.47043 -65.25331 37985 ft 479 kts 262°
2026-04-30 13:55 -3.48082 -65.31914 37988 ft 479 kts 262°
2026-04-30 13:56 -3.49108 -65.38501 37987 ft 479 kts 262°
2026-04-30 13:56 -3.50130 -65.45080 37981 ft 478 kts 262°
2026-04-30 13:57 -3.51161 -65.51657 37981 ft 478 kts 262°
2026-04-30 13:58 -3.53790 -65.68446 37983 ft 477 kts 262°
2026-04-30 13:59 -3.54807 -65.75011 37985 ft 477 kts 262°
2026-04-30 13:59 -3.55829 -65.81569 37985 ft 477 kts 262°
2026-04-30 14:00 -3.56856 -65.88121 37983 ft 477 kts 262°
2026-04-30 14:00 -3.58397 -65.97955 37983 ft 477 kts 262°
2026-04-30 14:01 -3.59423 -66.04506 37982 ft 477 kts 262°
2026-04-30 14:01 -3.60440 -66.11066 37982 ft 477 kts 262°
2026-04-30 14:02 -3.61457 -66.17625 37986 ft 477 kts 262°
2026-04-30 14:02 -3.62477 -66.24184 37989 ft 477 kts 262°
2026-04-30 14:03 -3.63494 -66.30736 37983 ft 477 kts 262°
2026-04-30 14:03 -3.64350 -66.36233 37991 ft 477 kts 262°
2026-04-30 14:04 -3.65531 -66.43859 37987 ft 477 kts 262°
2026-04-30 14:04 -3.66551 -66.50417 37988 ft 477 kts 262°
2026-04-30 14:05 -3.67577 -66.56978 37987 ft 477 kts 262°
2026-04-30 14:05 -3.68257 -66.61364 37984 ft 476 kts 262°
2026-04-30 14:06 -3.70126 -66.73400 37983 ft 476 kts 262°
2026-04-30 14:07 -3.71309 -66.81010 37982 ft 476 kts 262°
2026-04-30 14:08 -3.74525 -67.01736 37983 ft 475 kts 262°
2026-04-30 14:09 -3.75371 -67.07211 37982 ft 475 kts 263°
2026-04-30 14:10 -3.77223 -67.19164 37980 ft 474 kts 262°
2026-04-30 14:10 -3.78232 -67.25697 37980 ft 474 kts 263°
2026-04-30 14:11 -3.79230 -67.32220 37976 ft 474 kts 263°
2026-04-30 14:11 -3.80233 -67.38745 37980 ft 474 kts 262°
2026-04-30 14:12 -3.81249 -67.45295 37979 ft 474 kts 262°
2026-04-30 14:12 -3.81587 -67.47465 37978 ft 473 kts 262°